Location: *
(45.9500°N, 9.0833°E)
Time: 23:33:11
(UTC+00:00)

Tiros 1 despin weight - Pass Details

Date: 26 June 2021
Orbit: 593 x 642 km, 48.2° (Epoch: 02 August)

Event Time Altitude Azimuth Distance (km) Brightness Sun altitude
Rises 08:59:46 0° 285° (WNW) 2,827 ? 52.8°
Reaches altitude 10° 09:02:26 10° 270° (W) 1,924 ? 53.2°
Maximum altitude 09:05:49 22° 220° (SW) 1,313 ? 53.8°
Drops below altitude 10° 09:09:14 10° 169° (S) 1,927 ? 54.3°
Sets 09:11:55 0° 154° (SSE) 2,832 ? 54.7°
